Theta_e
331 331 331 331 331 329 329 327 328 328 327 327 327 328 328 329 324 325 325 325 328 326 325 326 326 326 328 328 327 329 329 327 327 328 326 323 323 323 323 324 325 324 320
330 331 331 330 331 328 329 328 326 327 327 326 327 327 327 329 324 326 328 327 328 325 327 325 327 327 327 327 329 328 327 328 327 326 324 324 324 323 325 325 325 325 326
330 330 331 330 330 329 329 328 327 326 326 325 327 327 329 330 329 328 329 329 329 329 326 326 327 327 327 327 329 329 328 327 327 326 324 325 325 325 325 325 325 321 317
329 329 331 330 330 330 329 328 327 326 326 327 328 329 329 329 329 326 327 330 330 330 329 327 327 328 327 328 329 328 328 327 326 325 325 325 325 325 324 323 320 319 314
328 329 330 331 331 329 329 328 327 327 328 329 329 329 329 329 329 327 327 330 329 329 329 329 329 329 328 329 329 328 328 327 327 326 326 325 326 324 321 319 316 312 309
328 329 330 330 329 329 328 328 329 329 329 329 329 329 329 327 324 323 327 329 330 330 330 329 329 328 327 328 328 328 327 327 327 325 326 324 323 323 321 316 315 312 320
328 329 330 329 328 328 328 329 329 329 330 330 329 330 330 323 323 324 324 329 329 329 330 329 329 328 328 328 328 328 328 327 326 325 326 325 324 324 323 316 320 320 322
327 329 329 328 329 329 329 329 329 330 330 328 328 329 327 324 324 326 326 327 328 329 329 329 328 328 327 327 327 327 326 327 326 326 326 323 324 324 322 317 317 325 325
326 329 329 329 329 330 330 331 331 330 330 330 330 329 328 325 325 327 329 328 328 329 328 329 328 328 327 327 327 326 326 326 326 324 322 323 324 325 325 322 326 325 325
325 328 329 329 329 329 329 328 329 330 330 329 331 330 326 325 326 327 328 328 330 329 327 326 326 327 327 326 328 328 328 326 326 326 325 325 325 316 312 321 325 326 326
323 327 329 330 329 330 331 323 326 328 328 330 331 328 326 325 326 327 329 327 328 327 328 326 326 326 326 326 328 329 328 326 322 324 323 322 318 315 315 325 326 328 327
323 325 327 329 329 330 331 328 327 326 329 330 330 330 328 326 326 326 326 327 328 328 328 328 326 325 324 324 323 322 321 322 326 326 326 325 324 324 325 322 323 327 327
323 323 325 327 329 330 329 329 327 326 326 329 330 330 330 330 326 327 326 326 328 329 330 329 325 324 324 325 325 326 325 327 327 327 327 327 327 326 322 322 320 319 319
324 324 324 325 329 329 328 328 327 325 324 324 328 329 329 330 328 326 326 325 326 327 327 326 324 323 325 325 321 320 322 324 326 326 323 321 319 318 318 318 318 318 319
324 324 324 323 324 330 328 329 327 327 324 322 323 325 328 329 329 328 327 327 326 327 326 325 324 324 325 325 325 323 323 322 322 323 323 319 318 320 320 318 318 320 319
324 324 323 321 322 325 329 329 328 328 325 323 321 323 323 323 323 323 324 326 327 326 326 326 326 325 325 325 324 323 322 321 322 323 323 321 320 319 318 317 317 318 318
324 324 323 321 322 321 323 328 328 328 327 326 323 320 320 320 319 316 316 315 315 317 323 324 323 322 323 323 323 322 321 321 322 323 321 321 321 320 318 318 318 319 317
325 324 324 322 321 321 323 323 323 325 325 325 321 324 323 320 317 318 319 318 317 317 320 320 320 320 319 318 318 318 319 320 321 322 322 322 322 320 318 318 318 317 315
326 324 323 323 322 321 321 322 322 322 322 322 322 321 324 324 321 321 318 320 322 321 321 321 321 321 320 320 320 318 317 317 319 321 321 321 321 320 318 317 317 315 313
326 325 324 323 322 321 321 322 322 322 323 323 323 324 322 323 324 320 320 321 321 320 320 320 320 321 321 321 320 320 319 319 318 319 320 320 320 320 319 318 317 312 312
328 327 324 324 323 322 321 321 321 321 322 323 323 324 324 319 323 323 322 319 322 322 322 321 320 319 318 317 318 319 319 319 319 318 318 319 319 319 319 318 316 313 308
328 328 326 325 325 324 323 321 322 322 322 322 322 323 323 321 322 323 324 324 321 321 321 322 321 320 319 318 316 316 316 317 318 318 318 318 318 318 317 317 314 308 306
328 328 327 326 326 325 324 324 322 322 322 322 322 322 322 322 322 322 324 325 325 323 321 321 321 321 320 319 318 317 316 314 314 316 317 317 317 317 316 314 311 307 305
329 328 328 326 326 326 326 326 325 324 324 323 322 322 322 323 322 322 322 325 325 324 323 321 320 321 320 320 320 320 320 319 318 317 316 316 316 315 314 312 309 306 306
329 329 328 328 327 326 327 327 327 327 326 325 325 324 324 324 325 322 324 324 325 324 324 323 321 320 319 321 321 319 318 317 318 318 318 317 316 314 311 309 306 305 306
328 329 329 328 328 327 327 328 328 328 328 328 327 327 327 327 326 325 325 325 325 325 324 324 323 321 319 318 318 319 319 319 320 320 318 317 315 313 310 307 306 306 305
Wind_Speed
13 11 9 7 4 3 3 5 7 8 8 6 4 2 1 1 1 2 3 5 5 6 11 10 9 7 7 5 7 9 19 11 23 40 45 46 42 41 39 36 32 28 26
12 11 8 6 5 4 5 6 7 8 8 6 4 2 1 1 2 1 1 7 9 9 8 5 7 12 8 11 12 18 17 25 45 47 48 41 41 41 37 26 27 24 22
12 9 7 6 4 4 6 6 8 8 7 6 5 4 3 4 5 4 7 7 9 9 12 9 8 15 14 14 16 21 24 31 39 47 46 41 37 35 32 27 25 25 20
12 9 6 4 5 6 8 8 8 8 7 6 7 6 6 6 5 7 9 8 8 9 9 10 10 17 14 18 21 24 33 36 43 46 39 34 38 30 27 28 26 23 24
12 10 7 5 5 8 9 10 9 8 8 7 9 9 7 7 7 7 11 8 9 12 13 12 15 15 16 19 23 26 28 34 39 40 37 37 35 35 33 28 27 22 19
13 11 8 7 9 10 12 12 11 9 9 9 8 9 8 6 8 5 6 8 8 12 15 16 19 17 17 16 22 22 27 34 40 41 37 41 37 29 24 23 22 21 15
15 13 10 10 12 12 13 13 11 10 9 9 8 8 8 8 6 3 3 8 9 11 17 17 20 21 21 20 20 19 24 31 33 34 39 33 32 25 25 25 20 18 14
16 14 12 13 13 13 12 12 11 9 8 6 7 9 8 8 8 3 5 11 13 14 17 19 23 21 21 21 21 27 23 20 24 31 29 30 27 25 24 22 21 16 16
18 17 15 15 14 13 12 11 10 10 8 5 4 7 9 9 7 8 10 14 14 15 18 17 17 20 20 22 24 26 26 22 23 27 26 26 20 19 21 20 19 18 18
20 19 17 15 15 13 11 10 10 10 9 7 7 8 8 11 9 9 12 19 14 21 19 23 25 30 25 21 20 22 23 24 20 23 23 21 21 19 21 18 18 15 14
20 20 20 17 16 13 11 9 9 10 9 9 9 10 11 11 11 11 12 16 20 19 20 25 25 21 19 19 19 16 17 20 21 19 21 22 22 22 21 17 17 10 12
22 21 21 19 16 14 12 10 9 9 10 11 10 11 10 13 15 14 12 13 22 20 20 18 21 18 19 20 19 20 20 21 17 17 17 18 18 17 15 18 18 15 17
23 22 21 20 17 17 15 13 10 10 9 10 11 11 11 10 14 14 18 18 23 17 18 18 20 19 19 19 20 20 19 15 16 16 15 14 14 14 18 17 17 16 15
25 24 22 21 20 18 16 14 12 11 11 11 11 12 12 12 14 17 19 20 18 18 23 22 19 18 18 16 19 19 12 13 15 14 13 13 16 16 16 17 17 17 15
26 25 23 22 23 20 19 16 15 13 12 12 12 12 14 14 15 17 19 19 19 19 23 21 18 15 14 15 14 14 12 15 14 13 14 15 15 15 14 16 15 15 14
28 27 25 23 22 21 21 19 20 17 16 14 15 14 13 13 16 17 18 20 21 21 20 16 16 16 17 18 17 16 15 16 13 13 14 14 15 15 15 15 14 14 12
30 28 26 25 23 23 22 20 20 22 18 17 15 15 17 17 16 17 19 18 17 18 16 16 16 17 17 18 18 18 18 17 16 15 15 15 15 15 17 15 15 14 12
30 29 27 27 24 24 22 21 20 20 22 22 24 20 17 16 17 19 20 20 22 23 18 17 17 17 18 19 19 19 19 18 18 18 17 17 17 17 17 16 16 16 17
30 28 27 24 24 24 23 22 21 19 19 19 20 25 23 21 21 21 21 22 20 21 22 20 19 19 19 19 19 20 21 21 21 20 20 20 20 20 20 19 20 22 24
31 30 29 25 25 26 25 24 23 22 21 21 21 19 25 26 26 27 28 28 23 22 22 23 22 21 20 20 20 21 22 23 24 24 23 23 23 22 22 21 22 25 31
32 32 34 28 26 26 27 27 26 25 25 24 23 22 24 27 25 25 25 30 28 26 24 24 24 24 24 24 23 23 23 23 24 24 24 25 24 25 24 24 25 31 27
32 31 34 35 29 27 28 27 27 27 26 26 24 24 28 27 23 24 24 24 25 27 26 26 25 25 25 25 26 26 26 26 25 24 24 24 24 24 23 24 26 25 26
32 32 31 33 34 31 29 28 28 29 28 27 26 25 28 29 28 25 25 24 24 25 25 27 27 26 26 26 25 25 26 26 25 25 24 24 26 26 26 27 29 26 35
32 32 33 31 34 33 31 31 30 30 29 29 28 29 28 28 30 29 27 26 25 24 24 26 27 27 26 25 25 25 25 24 23 24 27 27 28 31 29 30 31 35 36
28 29 30 29 28 32 29 29 28 29 29 30 30 31 30 30 28 30 27 28 27 26 26 26 26 27 29 29 28 28 27 29 28 30 28 27 26 26 26 26 32 38 37
22 26 26 25 25 25 26 24 24 23 27 29 29 29 29 29 30 27 27 27 28 28 28 26 27 27 27 27 29 30 32 31 31 32 30 27 25 27 29 31 35 36 39
Wind_Direction
171 172 175 175 158 139 133 141 155 164 170 161 163 113 86 120 172 195 218 212 194 183 178 205 213 208 171 171 154 138 150 159 138 141 153 146 145 147 154 156 155 156 151
169 171 181 179 180 167 148 150 159 168 168 167 158 161 134 158 99 101 207 177 172 176 161 194 193 180 162 150 144 144 141 140 137 133 143 146 148 155 158 149 158 149 149
169 172 179 186 185 160 151 154 166 172 170 162 152 146 152 114 95 92 100 123 153 158 169 150 147 152 147 146 150 146 139 144 146 139 147 153 152 152 152 154 138 143 145
167 171 173 174 168 149 149 147 157 166 164 156 145 145 124 110 108 100 95 93 109 141 160 167 148 155 149 152 143 134 140 143 151 153 155 150 156 160 152 143 141 149 151
166 165 162 156 147 145 142 143 150 153 151 154 148 140 127 115 112 101 93 101 109 125 124 124 136 151 150 144 144 144 153 157 148 156 148 151 145 144 141 148 150 157 162
163 163 152 146 145 144 141 138 138 143 144 151 155 150 137 133 125 87 103 106 110 123 128 125 132 138 137 147 145 149 153 155 161 154 157 150 148 149 149 143 153 157 148
163 163 154 147 147 141 140 138 141 145 145 147 152 150 142 161 149 116 119 123 123 127 130 130 129 127 120 127 144 157 155 166 166 159 166 155 159 164 161 155 163 157 159
166 164 157 150 149 147 145 145 145 149 148 149 153 155 151 157 146 128 150 139 134 132 125 127 133 130 129 134 133 136 140 156 167 152 158 156 156 163 163 163 152 164 161
169 167 161 159 153 147 146 146 153 154 149 140 136 140 141 146 133 126 129 143 133 136 131 120 131 141 130 130 139 135 138 132 137 152 154 159 165 168 161 163 164 159 160
173 172 168 162 159 152 144 139 147 152 152 137 128 129 133 147 141 138 140 143 131 131 131 126 118 120 122 126 130 135 137 143 148 159 167 172 172 169 169 162 165 175 173
176 175 174 172 168 166 155 139 142 143 152 146 142 140 135 138 142 127 136 151 149 130 130 129 123 120 125 136 137 141 150 147 147 147 156 163 167 168 169 166 178 193 183
178 178 179 180 178 183 174 163 149 151 149 148 147 138 141 133 134 136 133 147 153 141 138 140 133 132 136 139 140 143 147 147 145 149 152 157 162 169 181 190 192 185 194
181 182 183 184 181 186 179 176 167 159 158 156 152 152 149 148 147 145 134 132 158 141 152 156 146 144 144 144 145 151 156 157 160 158 158 160 168 179 194 196 199 207 215
183 185 186 186 186 187 188 189 183 178 176 168 165 163 160 155 156 152 154 156 154 153 161 158 159 156 153 160 156 154 145 153 160 165 167 169 183 186 193 201 206 208 209
185 186 187 189 191 192 191 194 192 194 187 183 177 173 173 174 178 170 166 166 163 169 169 170 174 176 178 177 179 180 174 174 169 177 180 184 186 183 189 196 196 198 199
186 189 191 191 194 197 197 200 194 196 197 187 191 182 187 187 197 184 183 182 182 185 181 186 191 194 194 196 196 197 198 197 194 194 194 194 193 193 194 198 197 192 200
191 191 193 191 196 196 200 204 203 205 203 200 195 183 186 204 196 191 189 190 190 191 191 200 201 201 202 204 207 210 212 212 209 209 209 206 204 201 208 202 202 204 201
195 197 192 194 197 197 199 203 206 209 210 208 201 205 198 197 199 204 202 202 204 206 207 212 213 213 214 215 216 217 218 219 218 217 217 216 212 209 210 209 208 204 198
197 199 197 200 201 200 200 199 201 203 205 206 206 207 209 207 207 207 211 214 216 220 220 218 221 221 222 221 222 222 221 221 223 221 220 219 218 215 218 213 212 207 204
200 200 200 202 202 203 201 202 202 204 206 207 209 215 214 212 215 218 220 219 218 226 229 230 229 228 228 228 226 224 224 224 224 224 223 223 222 221 221 217 214 211 214
200 203 207 200 205 206 205 207 205 206 209 211 212 214 216 215 216 219 223 226 225 226 230 231 232 233 232 231 230 228 228 228 228 228 226 227 225 224 222 220 214 224 213
201 200 206 205 207 208 208 209 211 212 213 214 216 217 224 226 218 223 225 228 227 228 227 230 231 231 232 231 231 231 231 233 232 232 231 230 230 229 226 220 210 206 210
204 202 206 206 209 212 211 209 211 212 216 218 217 217 223 222 218 220 224 225 228 227 228 227 230 231 230 230 229 231 234 236 237 237 236 233 230 226 221 212 209 202 215
209 207 207 206 206 212 213 213 214 217 216 216 216 218 225 228 227 225 226 228 228 230 231 230 228 228 227 227 230 230 233 236 234 234 236 232 228 227 215 214 214 210 214
213 214 209 210 208 210 215 218 222 222 224 221 223 223 224 228 231 232 228 228 230 231 232 233 231 232 232 230 232 236 241 246 247 244 237 233 226 221 214 213 209 217 215
210 212 209 209 207 204 208 213 218 226 233 235 229 229 232 229 231 231 229 227 227 229 234 236 238 240 242 242 241 243 246 248 248 249 247 245 229 213 209 207 214 222 207